This is the latest recevied weather packets stored in our database for station/object DO6DD-13. If no packets are shown the sender has not sent any weather packets the latest 10 day(s).
| Time | Temp. | Humidity | Pressure | Rain* | Wind** | Luminosity | Snow |
|---|---|---|---|---|---|---|---|
| 1777875020 | 14.44° C | 84% | 1013.2 hPa | - | - | 50 W/m² | - |
| 1777874419 | 14.44° C | 84% | 1013.1 hPa | - | - | 40 W/m² | - |
| 1777873819 | 14.44° C | 84% | 1013 hPa | - | - | 40 W/m² | - |
| 1777873219 | 14.44° C | 85% | 1013 hPa | - | - | 40 W/m² | - |
| 1777872618 | 14.44° C | 85% | 1012.9 hPa | - | - | 48 W/m² | - |
| 1777872027 | 14.44° C | 86% | 1012.8 hPa | - | - | 32 W/m² | - |
| 1777871417 | 13.89° C | 86% | 1012.8 hPa | - | - | 26 W/m² | - |
| 1777870826 | 13.89° C | 86% | 1012.7 hPa | - | - | 22 W/m² | - |
| 1777870226 | 13.89° C | 86% | 1012.7 hPa | - | - | 18 W/m² | - |
| 1777869625 | 13.89° C | 86% | 1012.7 hPa | - | - | 12 W/m² | - |
| 1777869025 | 13.89° C | 85% | 1012.8 hPa | - | - | 8 W/m² | - |
| 1777868424 | 13.89° C | 85% | 1012.8 hPa | - | - | 8 W/m² | - |
| 1777867834 | 13.89° C | 85% | 1012.9 hPa | - | - | 6 W/m² | - |
| 1777867223 | 13.89° C | 85% | 1012.8 hPa | - | - | 4 W/m² | - |
| 1777866623 | 13.89° C | 85% | 1012.7 hPa | - | - | 4 W/m² | - |
| 1777866022 | 13.89° C | 84% | 1012.7 hPa | - | - | 2 W/m² | - |
| 1777865422 | 14.44° C | 84% | 1012.7 hPa | - | - | 2 W/m² | - |
| 1777864822 | 14.44° C | 83% | 1012.6 hPa | - | - | 2 W/m² | - |
| 1777864231 | 14.44° C | 83% | 1012.7 hPa | - | - | 2 W/m² | - |
| 1777863631 | 14.44° C | 84% | 1012.6 hPa | - | - | 2 W/m² | - |
| 1777863020 | 14.44° C | 84% | 1012.5 hPa | - | - | 2 W/m² | - |
| 1777862430 | 14.44° C | 84% | 1012.3 hPa | - | - | 2 W/m² | - |
| 1777861829 | 14.44° C | 84% | 1012.3 hPa | - | - | 2 W/m² | - |
| 1777861219 | 14.44° C | 84% | 1012.2 hPa | - | - | 2 W/m² | - |
| 1777860618 | 15° C | 83% | 1012.3 hPa | - | - | 2 W/m² | - |
* Rain since midnight (hover to see other rain measurements)
** Current wind speed in m/s (hover to see current wind gust speed)